Content
SEND FEEDBACK

Daily
Averages
Monthly
Summary
United States of America

LAFAYETTE, INDIANA


Home > North America > United States > Indiana
Elevation: 605 feet     Latitude: 40 24N     Longitude: 086 56W

WEATHER
 
SELECT A DAY
Number of Records: 204,396;   Date Range: 1/1/95 - 7/29/14
 
SHARE

PRINT THIS DATA

[ ← Previous Day ]
WEATHER ALMANAC - FEBRUARY 13, 2013
[ Next Day → ]
[ °C ]   °F
Weather ElementAverageHighLow
Temperature33.8 °F46 °F (3:54 pm)23 °F (6:54 am)
Dewpoint25.7 °F30 °F (6:54 pm)21 °F (6:54 am)
Humidity74.4 %92 % (3:54 am)46 % (3:54 pm)
Barometer29.85 in29.96 in (1:54 am)29.77 in (3:54 pm)
Wind Speed4.1 mph13.8 mph (4:54 pm)
Wind Gust18.4 mph (4:54 pm)
Weather ElementAverage
Visibility8.3 mi
Wind DirectionSE (133.5 °)

Weather ElementTotal
Precipitation---
Heating Degree Days30.5 (Base 65)
Averaged from 23 records on February 13, 2013
WEATHER CONDITIONS BREAKOUT
WIND DIRECTION BREAKOUT
WEATHER BY HOUR - FEBRUARY 13, 2013
[ °C ]   °F
Local TimeTemperatureDewpointHumidityBarometerVisibilityWind DirectionWind SpeedGust SpeedPrecipitationEventsConditions
1:54 AM24.1 °F21.9 °F91 %29.96 in6.0 miCalmClear
2:54 AM25.0 °F21.9 °F88 %29.94 in7.0 miNorth (10°)3.5 mphClear
3:54 AM25.0 °F23.0 °F92 %29.92 in6.0 miSSE (150°)3.5 mphClear
4:54 AM26.1 °F23.0 °F88 %29.90 in6.0 miCalmClear
5:54 AM24.1 °F21.9 °F91 %29.88 in5.0 miCalmClear
6:54 AM23.0 °F21.0 °F92 %29.87 in5.0 miCalmClear
7:54 AM24.1 °F21.9 °F91 %29.86 in5.0 miCalmClear
8:54 AM26.1 °F23.0 °F88 %29.88 in4.0 miCalmClear
9:54 AM30.0 °F26.1 °F85 %29.88 in6.0 miCalmClear
10:54 AM34.0 °F26.1 °F73 %29.87 in10.0 miVariable4.6 mphClear
11:54 AM37.0 °F27.0 °F67 %29.86 in10.0 miSW (220°)8.1 mphClear
12:54 PM39.9 °F27.0 °F60 %29.83 in10.0 miVariable4.6 mphClear
1:54 PM43.0 °F27.0 °F53 %29.79 in10.0 miSSW (210°)8.1 mphClear
2:54 PM45.0 °F27.0 °F49 %29.78 in10.0 miWSW (240°)9.2 mphClear
3:54 PM46.0 °F26.1 °F46 %29.77 in10.0 miWSW (250°)8.1 mph17.3 mphClear
4:54 PM46.0 °F26.1 °F46 %29.78 in10.0 miWest (260°)13.8 mph18.4 mphClear
5:54 PM43.0 °F28.9 °F58 %29.78 in10.0 miSW (230°)6.9 mphClear
6:54 PM41.0 °F30.0 °F65 %29.80 in10.0 miSW (230°)4.6 mphClear
7:54 PM37.9 °F30.0 °F73 %29.82 in10.0 miWest (280°)3.5 mphScattered Clouds
8:54 PM36.0 °F28.9 °F76 %29.82 in10.0 miWest (270°)4.6 mphClear
9:54 PM34.0 °F28.0 °F79 %29.83 in10.0 miWSW (250°)3.5 mphScattered Clouds
10:54 PM33.1 °F28.0 °F82 %29.82 in10.0 miWSW (240°)3.5 mphClear
11:54 PM33.1 °F27.0 °F78 %29.83 in10.0 miSW (230°)3.5 mphClear
Hourly data recorded from KLAF, located miles away from Lafayette, Indiana







STORIES FROM OUR PARTNERS